Regional Weather Roundup
Issued by NWS Green Bay, WI

Home | Current Version | Previous Version | Text Only | Print | Product List | Glossary On
Versions: 1 2 3 4 5 6 7 8 9 10 11 12 13 14 15 16 17 18 19 20 21 22 23 24 25 26 27 28 29 30 31 32 33 34 35 36 37 38 39 40 41 42 43 44 45 46 47 48 49 50
000
ASUS43 KGRB 291359
RWRGRB

NORTH-CENTRAL AND NORTHEAST WISCONSIN REGIONAL WEATHER ROUNDUP
NATIONAL WEATHER SERVICE GREEN BAY WI
900 AM CDT TUE JUL 29 2014

WIZ005-009-010>012-018-019-291500-
NORTH CENTRAL WISCONSIN

CITY           SKY/WX    TMP DP  RH WIND       PRES   REMARKS
IRONWOOD       PTSUNNY   61  57  88 W7        30.04S
MANITOWISH WTR NOT AVBL
ARBOR VITAE    NOT AVBL
EAGLE RIVER    NOT AVBL
LAND O LAKES   NOT AVBL
RHINELANDER    CLOUDY    59  55  87 VRB7      30.07S
PHILLIPS       NOT AVBL
ANTIGO         NOT AVBL
TOMAHAWK       NOT AVBL
MERRILL        NOT AVBL
$$

WIZ013-073-291500-
NORTHEAST WISCONSIN

CITY           SKY/WX    TMP DP  RH WIND       PRES   REMARKS
IRON MOUNTAIN  PTSUNNY   63  53  70 NW7       30.00S
MARINETTE      SUNNY     63  54  72 N6        29.99F
$$

WIZ017-030-035>037-045-291500-
CENTRAL WISCONSIN

CITY           SKY/WX    TMP DP  RH WIND       PRES   REMARKS
MEDFORD        NOT AVBL
WAUSAU         CLOUDY    60  54  80 NW8       30.05S
MOSINEE        NOT AVBL
MARSHFIELD     MOSUNNY   66  55  67 NW12      30.08R
WISC RAPIDS    MOSUNNY   64  56  75 NW6       30.09R
STEVENS POINT  NOT AVBL
WAUPACA        NOT AVBL
SHAWANO        NOT AVBL
CLINTONVILLE   NOT AVBL
$$

WIZ038-039-048-051-291500-
FOX VALLEY

CITY           SKY/WX    TMP DP  RH WIND       PRES   REMARKS
NWS GREEN BAY  SUNNY     66  56  70 VRB6      30.03R
APPLETON       NOT AVBL
OSHKOSH        MOSUNNY   66  55  67 VRB7      30.04S
FOND DU LAC    MOSUNNY   66  55  67 N5        30.05S
$$

WIZ022-050-052-291500-
EAST CENTRAL WISCONSIN

CITY           SKY/WX    TMP DP  RH WIND       PRES   REMARKS
STURGEON BAY   PTSUNNY   63  54  72 NW7       30.02S
MANITOWOC      NOT AVBL
SHEBOYGAN      MOSUNNY   64  56  75 NW7       30.03R
$$

LMZ563-521-522-541>543-291500-
LAKESHORE

STATION/POSITION TIME  TEMP    WIND        PRES    VSBY  WAVE
                       AIR SEA DIR/SP/G                  HT/PER
                 (UTC) (F)     (DEG/KT/KT) (MB)    (MI)  (FT/S)
SHEBOYGAN LKSHOR 1300   63     290/  8/  9 1016.7R
KEWAUNEE LKSHORE 1300   63     300/  7/ 10 1016.8S
NORTHPORT PIER   1300   60     320/ 11/ 15 1015.2S
N MID LAKE BUOY  1300   56 51  300/  8/  8 1014.6R         0
CHAMBERS ISLAND  1300   61     300/  3/  8 1015.9R
MENOMINEE LKSHOR 1300   62     300/  8/ 12 1016.4S
$$


USA.gov is the U.S. government's official web portal to all federal, state and local government web resources and services.